User: anonymous   Login
Location: Caltech
(34.1382°N, 118.1253°W)
Time: 06:30:32
(UTC-07:00)
Language:

Cosmos 1937 Rocket - Orbit

View from above orbital plane
View from above orbital plane
View from above satellite
View from above satellite

Ground track
Ground track

The orbit data is extracted from the following two-line orbital elements,

1 19039U 88029B   14296.51686211  .00000595  00000-0  20465-3 0  1655
2 19039 074.0481 281.1013 0024736 331.7174 162.4490 14.38056504391737
Epoch (UTC): 23 October 2014 12:24:16
Eccentricity: 0.0024736
inclination: 74.0481°
perigee height: 747 km
apogee height: 782 km
right ascension of ascending node: 281.1013°
argument of perigee: 331.7174°
revolutions per day: 14.38056504
mean anomaly at epoch: 162.4490°
orbit number at epoch: 39173

The dashed part of the orbit path shows where the satellite is in the earth's shadow,  

DLR